Location: ??
(34.9170°N, 135.5016°E)
Time: 11:34:06
(UTC+00:00)

Explorer 7 - Pass Details

Date: 28 February 2021
Orbit: 484 x 677 km, 50.3° (Epoch: 18 April)

Event Time Altitude Azimuth Distance (km) Brightness Sun altitude
Rises 11:30:21 0° 318° (NW) 2,669 11.1 -32.9°
Enters shadow 11:32:43 - 330° (NNW) 1,814 9.9 -33.4°
Reaches altitude 10° 11:32:55 10° 332° (NNW) 1,745 - -33.4°
Maximum altitude 11:36:13 25° 29° (NNE) 1,042 - -34.1°
Drops below altitude 10° 11:39:24 10° 86° (E) 1,680 - -34.7°
Sets 11:41:49 0° 100° (E) 2,545 - -35.2°
